Location: downtown San Diego
(32.7310°N, 117.1990°W)
Time: 06:56:02
(UTC-07:00)

deb Kosmos-1763 - Pass Details

Date: 12 July 2018
Orbit: 484 x 499 km, 74.0° (Epoch: 22 July)

Event Time Altitude Azimuth Distance (km) Brightness Sun altitude
Rises 21:18:30 0° 345° (NNW) 2,592 8.7 -14.9°
Reaches altitude 10° 21:20:39 10° 347° (NNW) 1,706 7.6 -15.3°
Maximum altitude 21:24:24 74° 72° (ENE) 521 4.0 -15.9°
Enters shadow 21:26:02 32° 152° (SSE) 870 4.8 -16.2°
